Weather History for Plymouth, NH

Change the Weather History Date:

Thursday, February 21, 2013

  Actual Average (KLCI) Record (KLCI)
Temperature  
Mean Temperature 18 °F -  
Max Temperature 23 °F 39 °F 57 °F (1994)
Min Temperature 14 °F 20 °F -12 °F (1993)
Degree Days  
Heating Degree Days 46    
Moisture  
Dew Point 11 °F    
Average Humidity 70    
Maximum Humidity 82    
Minimum Humidity 56    
Precipitation  
Precipitation 0.00 in - - ()
Sea Level Pressure  
Sea Level Pressure 29.89 in    
Wind  
Wind Speed 10 mph (WNW)    
Max Wind Speed 21 mph    
Max Gust Speed 32 mph    
Visibility 8 miles    
Events Snow    
Averages and records for this station are not official NWS values.
T = Trace of Precipitation, MM = Missing Value Source: NWS Daily Summary

Daily Weather History Graph

Daily Weather History Graph

Search for Another Location

Airport:

Trip Planner

Search our weather history database for the weather conditions in past years. The results will help you decide how hot, cold, wet, or windy it might be!

Date:

Astronomy

Feb. 21, 2013 Rise Set
Actual Time 6:36 AM EST 5:25 PM EST
Civil Twilight 6:07 AM EST 5:54 PM EST
Nautical Twilight 5:33 AM EST 6:28 PM EST
Astronomical Twilight 5:00 AM EST 7:01 PM EST
Moon 1:32 PM EST 3:44 AM EST
Length of Visible Light 11h 47m
Length of Day
10h 49m
Waxing Gibbous, 83% of the Moon is Illuminated
Feb 21
Waxing Gibbous
Feb 25
Full
Mar 4
Last Quarter
Mar 11
New
Mar 19
First Quarter

Hourly Weather History & Observations

Time (EST) Temp. Windchill Dew Point Humidity Pressure Visibility Wind Dir Wind Speed Gust Speed Precip Events Conditions
12:15 AM 23.4 °F 15.2 °F 16.0 °F 73% 29.70 in 10.0 mi NW 6.9 mph - N/A   Unknown
12:35 AM 23.4 °F 15.2 °F 16.2 °F 74% 29.70 in 10.0 mi NW 6.9 mph - N/A   Unknown
12:55 AM 23.0 °F 17.0 °F 16.2 °F 75% 29.70 in 10.0 mi WNW 4.6 mph - N/A   Unknown
1:15 AM 23.2 °F 17.2 °F 16.2 °F 75% 29.70 in 10.0 mi WNW 4.6 mph - N/A   Unknown
1:35 AM 23.0 °F 17.0 °F 16.3 °F 76% 29.70 in 10.0 mi WNW 4.6 mph - N/A   Unknown
1:55 AM 23.4 °F 16.2 °F 16.5 °F 75% 29.70 in 10.0 mi NW 5.8 mph - N/A   Unknown
2:15 AM 23.5 °F 15.4 °F 16.5 °F 75% 29.70 in 10.0 mi WNW 6.9 mph - N/A   Unknown
2:35 AM 23.5 °F 14.5 °F 16.5 °F 75% 29.70 in 10.0 mi West 8.1 mph 17.3 mph N/A Snow Light Snow
2:55 AM 23.0 °F 14.7 °F 16.9 °F 77% 29.70 in 7.0 mi West 6.9 mph - N/A Snow Light Snow
3:15 AM 23.0 °F 13.1 °F 17.4 °F 79% 29.70 in 4.0 mi NW 9.2 mph - N/A Snow Light Snow
3:35 AM 21.2 °F 9.5 °F 16.5 °F 82% 29.71 in 1.8 mi WNW 11.5 mph 17.3 mph N/A Snow Light Snow
4:15 AM 20.3 °F 10.6 °F 14.0 °F 77% 29.71 in 5.0 mi West 8.1 mph - N/A Snow Light Snow
4:35 AM 19.9 °F 8.6 °F 11.5 °F 70% 29.72 in 10.0 mi WNW 10.4 mph - N/A   Unknown
4:55 AM 19.0 °F 6.1 °F 9.5 °F 66% 29.74 in 10.0 mi WNW 12.7 mph 18.4 mph N/A   Unknown
5:15 AM 18.3 °F 10.2 °F 8.6 °F 66% 29.74 in 10.0 mi WNW 5.8 mph 16.1 mph N/A   Unknown
5:35 AM 18.1 °F 7.9 °F 7.9 °F 64% 29.76 in 10.0 mi WNW 8.1 mph - N/A   Unknown
5:55 AM 17.2 °F 10.2 °F 7.5 °F 66% 29.77 in 10.0 mi NNW 4.6 mph - N/A   Unknown
6:15 AM 16.9 °F 8.5 °F 7.0 °F 65% 29.77 in 10.0 mi NW 5.8 mph - N/A   Unknown
6:35 AM 16.7 °F 3.8 °F 7.3 °F 67% 29.79 in 7.0 mi NNW 11.5 mph - N/A   Unknown
6:55 AM 16.2 °F 6.5 °F 9.5 °F 75% 29.80 in 1.8 mi WNW 6.9 mph - N/A Snow Light Snow
7:15 AM 15.1 °F 4.2 °F 10.4 °F 82% 29.79 in 1.8 mi West 8.1 mph - N/A Snow Light Snow
7:35 AM 14.9 °F 5.0 °F 9.0 °F 77% 29.81 in 3.0 mi NW 6.9 mph - N/A Snow Light Snow
7:55 AM 15.4 °F 1.0 °F 9.0 °F 76% 29.80 in 2.5 mi West 13.8 mph 20.7 mph N/A Snow Light Snow
8:15 AM 15.3 °F 0.8 °F 8.6 °F 75% 29.81 in 3.0 mi WNW 13.8 mph 20.7 mph N/A Snow Light Snow
8:35 AM 15.6 °F 0.6 °F 8.1 °F 72% 29.82 in 5.0 mi WNW 15.0 mph 20.7 mph N/A Snow Light Snow
8:55 AM 15.4 °F 1.0 °F 7.2 °F 70% 29.82 in 4.0 mi WNW 13.8 mph 18.4 mph N/A Snow Light Snow
9:15 AM 15.4 °F 1.0 °F 6.6 °F 68% 29.82 in 5.0 mi WNW 13.8 mph 23.0 mph N/A   Haze
9:35 AM 15.6 °F 1.8 °F 7.9 °F 72% 29.83 in 2.5 mi West 12.7 mph 24.2 mph N/A Snow Light Snow
9:55 AM 15.4 °F 0.4 °F 7.0 °F 69% 29.84 in 4.0 mi WNW 15.0 mph 27.6 mph N/A Snow Light Snow
10:35 AM 15.6 °F 0.1 °F 5.9 °F 66% 29.84 in 5.0 mi WNW 16.1 mph 21.9 mph N/A   Haze
10:55 AM 15.8 °F 0.3 °F 5.9 °F 65% 29.84 in 4.0 mi West 16.1 mph 25.3 mph N/A   Haze
11:15 AM 16.0 °F -0.9 °F 5.9 °F 65% 29.85 in 3.0 mi West 19.6 mph 27.6 mph N/A   Haze
11:35 AM 16.5 °F -0.1 °F 5.7 °F 63% 29.85 in 5.0 mi West 19.6 mph 32.2 mph N/A   Haze
11:55 AM 17.4 °F 0.6 °F 5.7 °F 60% 29.85 in 7.0 mi West 20.7 mph 28.8 mph N/A   Unknown
12:15 PM 18.1 °F 1.6 °F 6.6 °F 61% 29.84 in 5.0 mi West 20.7 mph 31.1 mph N/A   Haze
12:35 PM 17.8 °F 1.1 °F 6.3 °F 61% 29.85 in 7.0 mi West 20.7 mph 28.8 mph N/A   Unknown
12:55 PM 20.1 °F 4.6 °F 6.8 °F 56% 29.86 in 10.0 mi West 19.6 mph 31.1 mph N/A   Unknown
1:15 PM 21.2 °F 5.6 °F 7.7 °F 56% 29.86 in 10.0 mi West 20.7 mph 29.9 mph N/A   Unknown
1:35 PM 21.9 °F 8.7 °F 8.6 °F 57% 29.87 in 10.0 mi West 15.0 mph 23.0 mph N/A   Unknown
1:55 PM 22.5 °F 9.4 °F 9.1 °F 57% 29.88 in 10.0 mi West 15.0 mph 23.0 mph N/A   Unknown
2:15 PM 22.6 °F 9.6 °F 9.9 °F 58% 29.89 in 10.0 mi WNW 15.0 mph 24.2 mph N/A   Unknown
2:35 PM 22.6 °F 9.2 °F 10.0 °F 59% 29.90 in 10.0 mi WNW 16.1 mph 27.6 mph N/A   Unknown
2:55 PM 22.6 °F 8.3 °F 10.4 °F 59% 29.91 in 10.0 mi WNW 18.4 mph 26.5 mph N/A   Unknown
3:15 PM 22.1 °F 8.0 °F 9.9 °F 59% 29.92 in 10.0 mi WNW 17.3 mph 25.3 mph N/A   Unknown
3:35 PM 21.2 °F 6.8 °F 9.5 °F 61% 29.93 in 10.0 mi WNW 17.3 mph 23.0 mph N/A   Unknown
3:55 PM 21.0 °F 7.1 °F 10.2 °F 63% 29.95 in 10.0 mi West 16.1 mph 23.0 mph N/A   Unknown
4:15 PM 20.8 °F 5.9 °F 9.9 °F 63% 29.96 in 10.0 mi West 18.4 mph 25.3 mph N/A   Unknown
4:35 PM 20.3 °F 6.6 °F 10.2 °F 65% 29.98 in 10.0 mi West 15.0 mph 21.9 mph N/A   Unknown
5:15 PM 19.9 °F 7.9 °F 10.8 °F 68% 30.01 in 10.0 mi WNW 11.5 mph 18.4 mph N/A   Unknown
6:15 PM 19.2 °F 7.0 °F 12.2 °F 74% 30.05 in 10.0 mi West 11.5 mph 24.2 mph N/A Snow Light Snow
6:35 PM 19.0 °F 5.0 °F 12.2 °F 75% 30.07 in 10.0 mi West 15.0 mph 23.0 mph N/A Snow Light Snow
6:55 PM 19.8 °F 7.1 °F 12.9 °F 75% 30.07 in 10.0 mi West 12.7 mph 21.9 mph N/A   Unknown
7:15 PM 20.7 °F 7.1 °F 13.3 °F 73% 30.07 in 10.0 mi West 15.0 mph 23.0 mph N/A   Unknown
7:35 PM 21.2 °F 9.5 °F 13.8 °F 73% 30.08 in 10.0 mi West 11.5 mph 20.7 mph N/A   Unknown
7:55 PM 21.7 °F 10.2 °F 14.0 °F 72% 30.09 in 10.0 mi West 11.5 mph 17.3 mph N/A   Unknown
8:15 PM 22.1 °F 10.6 °F 14.0 °F 71% 30.10 in 10.0 mi West 11.5 mph 16.1 mph N/A   Unknown
8:35 PM 21.7 °F 12.3 °F 14.0 °F 72% 30.12 in 10.0 mi West 8.1 mph - N/A   Unknown
8:55 PM 22.1 °F 12.8 °F 14.0 °F 71% 30.13 in 10.0 mi WNW 8.1 mph - N/A   Unknown
9:15 PM 22.1 °F 10.6 °F 14.0 °F 71% 30.13 in 10.0 mi West 11.5 mph 19.6 mph N/A   Unknown
9:35 PM 21.9 °F 11.7 °F 14.4 °F 73% 30.13 in 10.0 mi West 9.2 mph - N/A   Unknown
9:55 PM 22.1 °F 13.7 °F 14.7 °F 73% 30.14 in 10.0 mi West 6.9 mph - N/A   Unknown
10:15 PM 21.9 °F 11.0 °F 14.7 °F 74% 30.14 in 10.0 mi WNW 10.4 mph 16.1 mph N/A   Unknown
10:35 PM 22.1 °F 10.6 °F 15.6 °F 76% 30.15 in 10.0 mi West 11.5 mph 20.7 mph N/A   Unknown
10:55 PM 22.1 °F 12.0 °F 15.8 °F 77% 30.16 in 10.0 mi West 9.2 mph - N/A   Unknown
11:15 PM 22.6 °F 9.2 °F 15.8 °F 75% 30.19 in 10.0 mi West 16.1 mph 23.0 mph N/A   Unknown
11:35 PM 23.2 °F 11.4 °F 16.5 °F 76% 30.19 in 10.0 mi West 12.7 mph 24.2 mph N/A   Unknown
11:55 PM 23.5 °F 11.8 °F 16.7 °F 75% 30.21 in 10.0 mi West 12.7 mph 21.9 mph N/A   Unknown